Regional Weather Roundup
Issued by NWS Albany, NY

Home | Current Version | Previous Version | Graphics & Text | Print | Product List | Glossary Off
Versions: 1 2 3 4 5 6 7 8 9 10 11 12 13 14 15 16 17 18 19 20 21 22 23 24 25 26 27 28

000
ASUS41 KALY 241910
RWRALY

NEW YORK STATE HOURLY WEATHER ROUNDUP
NATIONAL WEATHER SERVICE ALBANY NY
300 PM EDT THU APR 24 2014

NOTE: "FAIR" INDICATES FEW OR NO CLOUDS BELOW 12,000 FEET WITH NO
SIGNIFICANT WEATHER AND/OR NO OBSTRUCTIONS TO VISIBILITY.

NYZ032-033-038>043-046>054-057>066-NYZ062>081-242000-
EAST


CITY           SKY/WX    TMP DP  RH WIND       PRES   REMARKS
ALBANY         MOSUNNY   58  12  16 NW23G32   29.89R
GLENS FALLS    SUNNY     58  21  24 NW24G31   29.88S
POUGHKEEPSIE   SUNNY     61  16  17 N20G30    29.86S
NEWBURGH       SUNNY     59  18  20 NW23G35   29.89R
MONTGOMERY     SUNNY     59  13  16 NW16G32   29.87S
WHITE PLAINS   SUNNY     59  14  17 NW24G33   29.84F
ISLIP          MOSUNNY   61  10  13 NW30G39   29.81S
NEW YORK CITY  MOSUNNY   58  15  18 NW18G33   29.87S
CENTRAL PARK   SUNNY     61  13  15 VRB7G18   29.90S
$$

NYZ005>009-017-018-044>046-055-056-242000-
CENTRAL


CITY           SKY/WX    TMP DP  RH WIND       PRES   REMARKS
FULTON         SUNNY     47  21  35 W16G22    30.08F
SYRACUSE       MOSUNNY   50  21  32 NW15G24   30.07F
ROME           SUNNY     51  22  31 W18       30.01R
ELMIRA         SUNNY     55  14  19 N16G28    30.05F
BINGHAMTON     SUNNY     48  16  27 NW16G29   30.00F
MONTICELLO     SUNNY     54  12  19 NW24G32   29.93S
$$

NYZ026>034-041>043-242000-
NORTH


CITY           SKY/WX    TMP DP  RH WIND       PRES   REMARKS
WATERTOWN      SUNNY     50  24  36 SW15G22   30.04F
FORT DRUM      NOT AVBL
MASSENA        SUNNY     50  19  29 W18G25    30.01F
SARANAC LAKE   SUNNY     43  16  33 W13G22    29.92R
PLATTSBURGH    SUNNY     52  21  29 NW24G36   29.91F
$$

NYZ001>004-010>016-019>021-242000-
WEST


CITY           SKY/WX    TMP DP  RH WIND       PRES   REMARKS
NIAGARA FALLS  MOSUNNY   50  14  23 NW8       30.11F
BUFFALO        MOSUNNY   50  23  34 SW12      30.11F
DUNKIRK        SUNNY     49  15  25 VRB5      30.13F
JAMESTOWN      SUNNY     46  18  31 N6        30.07F
WELLSVILLE     SUNNY     51  15  23 N10G18    30.05F
ROCHESTER      MOSUNNY   52  19  27 N15       30.10F
PENN YAN       SUNNY     51  18  27 NW16G22   30.08S
$$

             KEY
       WCI = WIND CHILL INDEX
       VSB = VISIBILITY
       HX  = HEAT INDEX
$$



USA.gov is the U.S. government's official web portal to all federal, state and local government web resources and services.